AirNav   ProFlight Series 2 Aviation Headset
 
 1428 users online  

NC18 Rat Landing Seaplane Base
Ahoskie, North Carolina, USA

GOING TO AHOSKIE?


FAA INFORMATION EFFECTIVE 18 JUNE 2020

Location

FAA Identifier: NC18
Lat/Long: 36-23-22.0000N 076-54-41.0000W
36-23.366667N 076-54.683333W
36.3894444,-76.9113889
(estimated)
Elevation: 14 ft. / 4 m (estimated)
From city: 7 miles NE of AHOSKIE, NC
Time zone: UTC -4 (UTC -5 during Standard Time)
Zip code: 27986

Seaplane Base Operations

Seaplane Base use: Private use. Permission required prior to landing
Activation date: 12/2010
Control tower: no
ARTCC: WASHINGTON CENTER
FSS: RALEIGH FLIGHT SERVICE STATION
Attendance: UNATNDD
Segmented circle: no

Seaplane Base Communications

WX AWOS-3 at ASJ (14 nm SW): 119.075 (252-345-2967)
WX AWOS-3PT at FKN (19 nm N): 124.675 (757-562-8765)

Nearby radio navigation aids

VOR radial/distance  VOR name  Freq  Var
CVIr306/2.2COFIELD VORTAC114.6009W
FKNr175/20.1FRANKLIN VORTAC110.6009W
ECGr290/36.4ELIZABETH CITY VOR/DME112.5007W

 
NDB name  Hdg/Dist  Freq  Var  ID
WOODVILLE294/30.625410WLLW .-.. .-.. .--
WAKEFIELD184/35.927411WAKQ .- -.- --.-

Seaplane Base Services

Fuel available: 100LL

Runway Information

Runway 12W/30W

Dimensions: 7300 x 500 ft. / 2225 x 152 m
Surface: water
RUNWAY 12W  RUNWAY 30W
Traffic pattern: leftleft

Seaplane Base Ownership and Management from official FAA records

Ownership: Privately-owned
Owner: HENRY JOYNER
327B TUSCARORA RD
WINTON, NC 27986
Phone 252-395-0822
Manager: HENRY JOYNER
327B TUSCARORA RD
WINTON, NC 27986
Phone 252-395-0822

Seaplane Base Operational Statistics

Aircraft based on the field: 1
Single engine airplanes: 1
    
Aircraft operations: avg 25/month *
98% transient general aviation
2% military
* for 12-month period ending 25 January 2009

Additional Remarks

FOR CD CTC WASHINGTON ARTCC AT 703-771-3587.

Instrument Procedures

There are no published instrument procedures at NC18.

Some nearby airports with instrument procedures:

KASJ - Tri-County Airport (14 nm SW)
KFKN - Franklin Regional Airport (19 nm N)
KSFQ - Suffolk Executive Airport (23 nm NE)
KEDE - Northeastern Regional Airport (27 nm SE)
KPVG - Hampton Roads Executive Airport (32 nm NE)
 
Loc | Ops | Rwys | IFR | FBO | Links
Com | Nav | Svcs | Stats | Notes
Aerial photo
No photo
 
Sectional chart

 
Airport distance calculator
Flying to Rat Landing Seaplane Base? Find the distance to fly.

From to NC18

Sunrise and sunset
Times for 15-Jul-2020
 Local
(UTC-4)
 Zulu
(UTC)
Morning civil twilight05:3309:33
Sunrise06:0310:03
Sunset20:2400:24
Evening civil twilight20:5400:54

Current date and time
Zulu (UTC)  15-Jul-2020 18:26:45
Local (UTC-4)  15-Jul-2020 14:26:45
 
METAR
KASJ 
14nm SW 
151815Z AUTO 12005KT 10SM SCT060 SCT110 32/18 A3013 RMK AO2 T03170177
KFKN 
19nm N 
151815Z AUTO 00000KT 10SM SCT085 33/17 A3014 RMK AO2 T03250171
KSFQ 
23nm NE 
151815Z AUTO 11005KT 10SM BKN055 BKN065 OVC100 31/20 A3015 RMK AO2 T03050197
TAF
KECG 
36nm E 
151722Z 1518/1618 08008KT P6SM SKC FM160600 VRB03KT P6SM SKC FM161500 08008KT P6SM FEW070
KNGU 
44nm NE 
1515/1615 07010KT 9999 SCT040 BKN260 QNH3008INS WND 030V120 FM152300 10008KT 9999 FEW260 QNH3010INS FM160400 VRB04KT 9999 SKC QNH3014INS T32/1518Z T22/1610Z
NOTAMs
Click for the latest NOTAMs
NOTAMs are issued by the DoD/FAA and will open in a separate window not controlled by AirNav.

 

 
 

Would you like to see your business listed on this page?

 If your business provides an interesting product or service to pilots, flight crews, aircraft, or users of the Rat Landing Seaplane Base, you should consider listing it here.  To start the listing process, click on the button below
 
Add a business
 

Other Pages about Rat Landing Seaplane Base

Update a link
 
Copyright © AirNav, LLC. All rights reserved. Privacy Policy  Contact